Wappingers Falls, NY

2:19 AM EST on February 23, 2017 (GMT -0500)
Dutchess County

Weather History for KPOU - November, 2013

Change the Weather History Date:

Friday, November 8, 2013

  Actual Average Record
Temperature  
Mean Temperature 39 °F 44 °F  
Max Temperature 49 °F 55 °F 73 °F (1975)
Min Temperature 29 °F 33 °F 16 °F (1960)
Degree Days  
Heating Degree Days 26 21  
Month to date heating degree days 162 160  
Since 1 July heating degree days 650 736  
Cooling Degree Days 0 0  
Month to date cooling degree days 0 0  
Year to date cooling degree days 829 672  
Moisture  
Dew Point 27 °F    
Average Humidity 60    
Maximum Humidity 88    
Minimum Humidity 42    
Precipitation  
Precipitation T in 0.11 in 3.54 in (1977)
Month to date precipitation 0.38 0.93  
Year to date precipitation 34.53 40.46  
Sea Level Pressure  
Sea Level Pressure 30.03 in    
Wind  
Wind Speed 6 mph (West)    
Max Wind Speed 17 mph    
Max Gust Speed 25 mph    
Visibility 10 miles    
Events Rain    
T = Trace of Precipitation, MM = Missing Value Source: NWS Daily Summary

Daily Weather History Graph

Daily Weather History Graph

Search for Another Location

Airport or City:

Trip Planner

Search our weather history database for the weather conditions in past years. The results will help you decide how hot, cold, wet, or windy it might be!

Date:

Astronomy

Nov. 08, 2013 Rise Set
Actual Time 6:36 AM EST 4:41 PM EST
Civil Twilight 6:06 AM EST 5:11 PM EST
Nautical Twilight 5:33 AM EST 5:44 PM EST
Astronomical Twilight 5:01 AM EST 6:16 PM EST
Moon 11:30 AM EST (11/8) 9:59 PM EST (11/8)
Length of Visible Light 11h 04m
Length of Day
10h 05m
Waxing Crescent, 33% of the Moon is Illuminated
Nov 8
Waxing Crescent
Nov 10
First Quarter
Nov 17
Full
Nov 25
Last Quarter
Dec 2
New

Hourly Weather History & Observations

Time (EST) Temp. Windchill Dew Point Humidity Pressure Visibility Wind Dir Wind Speed Gust Speed Precip Events Conditions
12:53 AM 32.0 °F - 28.9 °F 88% 29.90 in 10.0 mi Calm Calm - N/A   Clear
1:53 AM 30.0 °F - 27.0 °F 88% 29.91 in 10.0 mi Calm Calm - N/A   Clear
2:53 AM 36.0 °F 33.3 °F 28.9 °F 76% 29.92 in 10.0 mi SW 3.5 mph - N/A   Overcast
3:53 AM 37.9 °F 34.4 °F 28.9 °F 70% 29.92 in 10.0 mi SW 4.6 mph - N/A   Clear
4:53 AM 37.9 °F 32.7 °F 28.9 °F 70% 29.95 in 10.0 mi SSW 6.9 mph - N/A   Mostly Cloudy
5:53 AM 37.9 °F - 28.9 °F 70% 29.95 in 10.0 mi Calm Calm - N/A   Partly Cloudy
6:53 AM 39.0 °F 35.7 °F 28.9 °F 67% 29.97 in 10.0 mi SSW 4.6 mph - N/A   Overcast
7:53 AM 39.9 °F 33.9 °F 28.9 °F 65% 29.99 in 10.0 mi SW 9.2 mph - N/A   Overcast
8:53 AM 43.0 °F 38.2 °F 28.9 °F 58% 30.00 in 10.0 mi West 8.1 mph 16.1 mph N/A   Clear
9:53 AM 44.1 °F 38.1 °F 27.0 °F 51% 30.00 in 10.0 mi West 11.5 mph - N/A   Partly Cloudy
10:53 AM 48.0 °F - 27.0 °F 44% 29.99 in 10.0 mi West 12.7 mph 19.6 mph N/A   Scattered Clouds
11:53 AM 48.0 °F - 26.1 °F 42% 29.98 in 10.0 mi West 17.3 mph 25.3 mph N/A   Overcast
12:53 PM 46.9 °F - 26.1 °F 44% 29.99 in 10.0 mi WNW 12.7 mph - N/A   Mostly Cloudy
1:53 PM 46.0 °F 40.2 °F 26.1 °F 46% 30.00 in 10.0 mi NW 12.7 mph 24.2 mph N/A   Overcast
2:53 PM 44.1 °F 37.7 °F 30.9 °F 60% 30.03 in 10.0 mi NW 12.7 mph 21.9 mph 0.00 in Rain Light Rain
3:53 PM 44.1 °F 39.0 °F 28.9 °F 55% 30.05 in 10.0 mi WNW 9.2 mph 16.1 mph 0.00 in   Mostly Cloudy
4:53 PM 43.0 °F 37.2 °F 26.1 °F 51% 30.09 in 10.0 mi NW 10.4 mph - N/A   Overcast
5:53 PM 39.9 °F 33.9 °F 26.1 °F 58% 30.11 in 10.0 mi West 9.2 mph - N/A   Partly Cloudy
6:53 PM 39.9 °F 34.5 °F 25.0 °F 55% 30.12 in 10.0 mi West 8.1 mph - N/A   Partly Cloudy
7:53 PM 41.0 °F 36.4 °F 25.0 °F 53% 30.13 in 10.0 mi West 6.9 mph - N/A   Mostly Cloudy
8:53 PM 42.1 °F 37.7 °F 25.0 °F 51% 30.14 in 10.0 mi WNW 6.9 mph - N/A   Overcast
9:53 PM 39.9 °F 35.8 °F 26.1 °F 58% 30.15 in 10.0 mi WSW 5.8 mph - N/A   Mostly Cloudy
10:53 PM 39.9 °F 35.1 °F 25.0 °F 55% 30.16 in 10.0 mi West 6.9 mph - N/A   Overcast
11:53 PM 39.9 °F 34.5 °F 25.0 °F 55% 30.16 in 10.0 mi WSW 8.1 mph - N/A   Overcast